{"data":{"norad_id":66903,"epoch":"2026-09-20T12:32:52.216512Z","epoch_age_seconds":82043,"freshness":"FRESH","line1":"1 66903U 25283AB  26263.52282658  .00015359  00000+0  46486-3 0  9994","line2":"2 66903  53.1586 195.6637 0001239  91.9497 268.1648 15.34393300 45729","mean_motion":15.343933,"eccentricity":0.0001239,"inclination_deg":53.1586,"raan_deg":195.6637,"arg_perigee_deg":91.9497,"mean_anomaly_deg":268.1648,"bstar":0.00046486,"rev_number":4572,"period_min":93.848167871953,"perigee_km":461.87557151844,"apogee_km":463.57073666462,"semimajor_km":6840.8601540915,"source":"CELESTRAK","updated_at":"2026-09-21T09:00:36.054598Z"}}